H1 CPF 2 NER 2022 4 17 9 107 01 glonass140 H2 1903001 9140 44299 2022 4 17 0 0 0 2022 4 20 23 45 0 900 1 1 0 0 0 1 H9 10 0 59686 0.00000 0 -14422048.726 -18189047.315 -10576297.287 10 0 59686 900.00000 0 -13316252.788 -17203070.117 -13314163.622 10 0 59686 1800.00000 0 -11872947.548 -16123939.397 -15793325.181 10 0 59686 2700.00000 0 -10105613.910 -15011390.217 -17965516.836 10 0 59686 3600.00000 0 -8040381.820 -13923077.880 -19788416.824 10 0 59686 4500.00000 0 -5715202.006 -12912095.542 -21226477.816 10 0 59686 5400.00000 0 -3178524.200 -12024700.863 -22251626.924 10 0 59686 6300.00000 0 -487535.332 -11298347.924 -22843820.546 10 0 59686 7200.00000 0 2293970.070 -10760107.819 -22991442.777 10 0 59686 8100.00000 0 5097999.565 -10425544.967 -22691539.158 10 0 59686 9000.00000 0 7854952.901 -10298096.886 -21949880.719 10 0 59686 9900.00000 0 10496284.949 -10368983.941 -20780856.575 10 0 59686 10800.00000 0 12957130.705 -10617653.014 -19207196.698 10 0 59686 11700.00000 0 15178782.972 -11012736.369 -17259529.880 10 0 59686 12600.00000 0 17110919.151 -11513484.971 -14975785.296 10 0 59686 13500.00000 0 18713484.242 -12071615.199 -12400449.280 10 0 59686 14400.00000 0 19958151.436 -12633490.120 -9583692.008 10 0 59686 15300.00000 0 20829299.557 -13142542.125 -6580381.644 10 0 59686 16200.00000 0 21324467.187 -13541833.274 -3449005.902 10 0 59686 17100.00000 0 21454265.549 -13776643.840 -250522.968 10 0 59686 18000.00000 0 21241755.278 -13796978.373 2952834.664 10 0 59686 18900.00000 0 20721315.053 -13559882.278 6098779.072 10 0 59686 19800.00000 0 19937051.575 -13031470.178 9126183.832 10 0 59686 20700.00000 0 18940819.657 -12188579.913 11976274.435 10 0 59686 21600.00000 0 17789937.437 -11019982.128 14593768.706 10 0 59686 22500.00000 0 16544694.116 -9527094.466 16927945.062 10 0 59686 23400.00000 0 15265755.886 -7724170.464 18933618.207 10 0 59686 24300.00000 0 14011579.304 -5637955.308 20572004.182 10 0 59686 25200.00000 0 12835940.410 -3306822.846 21811459.154 10 0 59686 26100.00000 0 11785682.495 -779429.730 22628078.867 10 0 59686 27000.00000 0 10898775.685 1887057.685 23006148.623 10 0 59686 27900.00000 0 10202768.238 4629090.798 22938436.320 10 0 59686 28800.00000 0 9713692.872 7379133.205 22426323.982 10 0 59686 29700.00000 0 9435472.568 10068224.181 21479775.961 10 0 59686 30600.00000 0 9359849.509 12628606.519 20117144.780 10 0 59686 31500.00000 0 9466839.408 14996311.270 18364818.299 10 0 59686 32400.00000 0 9725691.725 17113593.853 16256714.580 10 0 59686 33300.00000 0 10096315.492 18931121.875 13833633.420 10 0 59686 34200.00000 0 10531111.166 20409824.850 11142476.146 10 0 59686 35100.00000 0 10977131.981 21522329.833 8235347.674 10 0 59686 36000.00000 0 11378484.422 22253923.683 5168557.118 10 0 59686 36900.00000 0 11678867.167 22603002.033 2001535.419 10 0 59686 37800.00000 0 11824141.754 22580986.199 -1204309.769 10 0 59686 38700.00000 0 11764826.451 22211711.307 -4386780.321 10 0 59686 39600.00000 0 11458407.697 21530310.958 -7484092.109 10 0 59686 40500.00000 0 10871370.689 20581644.873 -10436074.388 10 0 59686 41400.00000 0 9980862.206 19418335.222 -13185340.663 10 0 59686 42300.00000 0 8775913.940 18098493.933 -15678407.837 10 0 59686 43200.00000 0 7258172.913 16683236.372 -17866741.571 10 0 59686 44100.00000 0 5442106.116 15234085.947 -19707707.034 10 0 59686 45000.00000 0 3354668.659 13810378.895 -21165406.051 10 0 59686 45900.00000 0 1034447.205 12466778.562 -22211383.928 10 0 59686 46800.00000 0 -1469687.440 11251003.981 -22825191.736 10 0 59686 47700.00000 0 -4100363.881 10201868.542 -22994792.616 10 0 59686 48600.00000 0 -6793856.742 9347711.507 -22716803.771 10 0 59686 49500.00000 0 -9482507.821 8705288.523 -21996568.885 10 0 59686 50400.00000 0 -12097321.350 8279167.957 -20848059.115 10 0 59686 51300.00000 0 -14570625.483 8061658.385 -19293604.112 10 0 59686 52200.00000 0 -16838689.074 8033270.033 -17363457.903 10 0 59686 53100.00000 0 -18844184.254 8163690.257 -15095207.897 10 0 59686 54000.00000 0 -20538391.857 8413231.158 -12533038.455 10 0 59686 54900.00000 0 -21883057.276 8734687.215 -9726863.565 10 0 59686 55800.00000 0 -22851819.114 9075523.249 -6731346.050 10 0 59686 56700.00000 0 -23431151.109 9380298.831 -3604823.130 10 0 59686 57600.00000 0 -23620778.532 9593225.135 -408160.220 10 0 59686 58500.00000 0 -23433552.618 9660744.645 2796443.553 10 0 59686 59400.00000 0 -22894789.749 9534023.324 5946673.750 10 0 59686 60300.00000 0 -22041104.796 9171248.749 8981318.267 10 0 59686 61200.00000 0 -20918789.399 8539636.387 11841459.638 10 0 59686 62100.00000 0 -19581805.048 7617058.806 14471618.442 10 0 59686 63000.00000 0 -18089476.645 6393228.947 16820825.569 10 0 59686 63900.00000 0 -16503984.458 4870387.656 18843602.844 10 0 59686 64800.00000 0 -14887760.128 3063466.637 20500833.852 10 0 59686 65700.00000 0 -13300895.829 999719.992 21760509.169 10 0 59686 66600.00000 0 -11798674.427 -1282160.334 22598332.887 10 0 59686 67500.00000 0 -10429322.895 -3733408.719 22998180.072 10 0 59686 68400.00000 0 -9232081.410 -6296973.497 22952397.645 10 0 59686 69300.00000 0 -8235667.234 -8909654.658 22461943.898 10 0 59686 70200.00000 0 -7457195.867 -11504504.091 21536364.741 10 0 59686 71100.00000 0 -6901603.013 -14013390.230 20193607.493 10 0 59686 72000.00000 0 -6561590.321 -16369622.147 18459675.752 10 0 59686 72900.00000 0 -6418096.200 -18510525.761 16368131.594 10 0 59686 73800.00000 0 -6441271.504 -20379866.607 13959453.939 10 0 59686 74700.00000 0 -6591918.973 -21930019.542 11280264.545 10 0 59686 75600.00000 0 -6823336.101 -23123796.021 8382435.517 10 0 59686 76500.00000 0 -7083484.211 -23935853.299 5322094.497 10 0 59686 77400.00000 0 -7317392.741 -24353626.910 2158545.910 10 0 59686 78300.00000 0 -7469697.633 -24377747.328 -1046871.596 10 0 59686 79200.00000 0 -7487206.741 -24021923.032 -4231969.935 10 0 59686 80100.00000 0 -7321383.698 -23312294.323 -7334915.750 10 0 59686 81000.00000 0 -6930644.709 -22286284.407 -10295430.655 10 0 59686 81900.00000 0 -6282370.255 -20990995.379 -13055964.092 10 0 59686 82800.00000 0 -5354545.414 -19481215.936 -15562815.589 10 0 59686 83700.00000 0 -4136957.926 -17817124.076 -17767184.249 10 0 59686 84600.00000 0 -2631901.494 -16061780.984 -19626124.615 10 0 59686 85500.00000 0 -854352.695 -14278521.214 -21103389.796 10 0 59687 0.00000 0 1168387.961 -12528348.873 -22170144.954 10 0 59687 900.00000 0 3397578.990 -10867448.187 -22805537.311 10 0 59687 1800.00000 0 5784407.017 -9344915.433 -22997109.762 10 0 59687 2700.00000 0 8271789.972 -8000804.357 -22741051.496 10 0 59687 3600.00000 0 10796537.679 -6864569.538 -22042278.712 10 0 59687 4500.00000 0 13291781.417 -5953972.085 -20914344.018 10 0 59687 5400.00000 0 15689571.385 -5274493.602 -19379175.710 10 0 59687 6300.00000 0 17923533.723 -4819282.626 -17466651.577 10 0 59687 7200.00000 0 19931475.875 -4569635.215 -15214015.327 10 0 59687 8100.00000 0 21657831.087 -4495988.504 -12665146.944 10 0 59687 9000.00000 0 23055839.433 -4559384.185 -9869701.356 10 0 59687 9900.00000 0 24089373.664 -4713338.774 -6882132.737 10 0 59687 10800.00000 0 24734333.390 -4906040.051 -3760624.151 10 0 59687 11700.00000 0 24979549.315 -5082775.179 -565944.330 10 0 59687 12600.00000 0 24827160.201 -5188486.152 2639744.976 10 0 59687 13500.00000 0 24292447.743 -5170342.955 5794106.778 10 0 59687 14400.00000 0 23403137.575 -4980224.275 8835847.057 10 0 59687 15300.00000 0 22198197.292 -4576999.913 11705908.827 10 0 59687 16200.00000 0 20726183.465 -3928517.819 14348618.428 10 0 59687 17100.00000 0 19043208.439 -3013211.520 16712761.736 10 0 59687 18000.00000 0 17210613.270 -1821260.155 18752569.706 10 0 59687 18900.00000 0 15292444.946 -355252.367 20428594.928 10 0 59687 19800.00000 0 13352843.555 1369673.780 21708463.350 10 0 59687 20700.00000 0 11453448.266 3326220.716 22567487.847 10 0 59687 21600.00000 0 9650929.456 5475835.051 22989133.199 10 0 59687 22500.00000 0 7994748.582 7770087.895 22965324.790 10 0 59687 23400.00000 0 6525237.602 10152475.038 22496596.145 10 0 59687 24300.00000 0 5272076.204 12560563.250 21592073.240 10 0 59687 25200.00000 0 4253228.545 14928394.822 20269296.266 10 0 59687 26100.00000 0 3474382.332 17189051.845 18553882.255 10 0 59687 27000.00000 0 2928912.317 19277275.164 16479034.686 10 0 59687 27900.00000 0 2598368.758 21132030.561 14084908.735 10 0 59687 28800.00000 0 2453469.860 22698916.490 11417843.551 10 0 59687 29700.00000 0 2455556.239 23932313.971 8529475.267 10 0 59687 30600.00000 0 2558446.350 24797189.550 5475746.830 10 0 59687 31500.00000 0 2710614.933 25270476.104 2315832.941 10 0 59687 32400.00000 0 2857602.845 25341973.615 -888999.886 10 0 59687 33300.00000 0 2944556.702 25014731.712 -4076576.580 10 0 59687 34200.00000 0 2918790.944 24304897.216 -7185017.294 10 0 59687 35100.00000 0 2732263.695 23241032.293 -10153938.445 10 0 59687 36000.00000 0 2343860.996 21862930.914 -12925627.516 10 0 59687 36900.00000 0 1721391.865 20219982.500 -15446168.388 10 0 59687 37800.00000 0 843208.457 18369150.676 -17666494.981 10 0 59687 38700.00000 0 -300618.747 16372651.341 -19543352.259 10 0 59687 39600.00000 0 -1707622.181 14295427.044 -21040145.368 10 0 59687 40500.00000 0 -3362785.469 12202523.274 -22127659.977 10 0 59687 41400.00000 0 -5238927.260 10156476.414 -22784639.330 10 0 59687 42300.00000 0 -7297606.372 8214822.833 -22998206.302 10 0 59687 43200.00000 0 -9490512.121 6427833.345 -22764121.782 10 0 59687 44100.00000 0 -11761283.060 4836567.909 -22086873.874 10 0 59687 45000.00000 0 -14047679.035 3471332.013 -20979595.673 10 0 59687 45900.00000 0 -16284016.410 2350599.139 -19463812.767 10 0 59687 46800.00000 0 -18403764.865 1480444.083 -17569024.990 10 0 59687 47700.00000 0 -20342196.999 854510.255 -15332130.312 10 0 59687 48600.00000 0 -22038979.507 454511.355 -12796702.048 10 0 59687 49500.00000 0 -23440596.913 251245.056 -10012133.603 10 0 59687 50400.00000 0 -24502505.680 206074.501 -7032667.930 10 0 59687 51300.00000 0 -25190928.009 272813.372 -3916331.322 10 0 59687 52200.00000 0 -25484209.847 399933.082 -723793.203 10 0 59687 53100.00000 0 -25373686.239 532996.969 2482824.669 10 0 59687 54000.00000 0 -24864018.255 617216.792 5641165.343 10 0 59687 54900.00000 0 -23972988.205 600021.870 8689855.434 10 0 59687 55800.00000 0 -22730762.909 433531.027 11569700.922 10 0 59687 56700.00000 0 -21178657.258 76822.014 14224836.289 10 0 59687 57600.00000 0 -19367451.184 -502097.926 16603804.624 10 0 59687 58500.00000 0 -17355331.641 -1324703.567 18660547.995 10 0 59687 59400.00000 0 -15205546.478 -2400812.143 20355289.705 10 0 59687 60300.00000 0 -12983868.484 -3727940.460 21655292.425 10 0 59687 61200.00000 0 -10755975.271 -5291185.491 22535478.787 10 0 59687 62100.00000 0 -8584853.450 -7063633.486 22978903.856 10 0 59687 63000.00000 0 -6528333.940 -9007280.810 22977071.667 10 0 59687 63900.00000 0 -4636859.497 -11074428.584 22530090.792 10 0 59687 64800.00000 0 -2951575.492 -13209493.917 21646666.735 10 0 59687 65700.00000 0 -1502821.515 -15351163.474 20343931.703 10 0 59687 66600.00000 0 -309084.852 -17434801.013 18647115.014 10 0 59687 67500.00000 0 623542.142 -19395010.116 16589060.098 10 0 59687 68400.00000 0 1301379.438 -21168246.780 14209596.682 10 0 59687 69300.00000 0 1742651.673 -22695374.164 11554779.336 10 0 59687 70200.00000 0 1976477.280 -23924053.865 8676006.045 10 0 59687 71100.00000 0 2041397.151 -24810874.492 5629032.720 10 0 59687 72000.00000 0 1983504.664 -25323128.657 2472901.850 10 0 59687 72900.00000 0 1854255.807 -25440163.876 -731194.755 10 0 59687 73800.00000 0 1708051.634 -25154250.189 -3921097.672 10 0 59687 74700.00000 0 1599695.150 -24470927.294 -7034883.238 10 0 59687 75600.00000 0 1581830.308 -23408815.587 -10012065.370 10 0 59687 76500.00000 0 1702471.887 -21998897.921 -12794772.274 10 0 59687 77400.00000 0 2002731.425 -20283301.077 -15328874.834 10 0 59687 78300.00000 0 2514836.472 -18313627.027 -17565044.337 10 0 59687 79200.00000 0 3260528.217 -16148903.015 -19459718.532 10 0 59687 80100.00000 0 4249906.732 -13853235.657 -20975956.725 10 0 59687 81000.00000 0 5480774.353 -11493266.724 -22084166.799 10 0 59687 81900.00000 0 6938506.755 -9135536.670 -22762689.625 10 0 59687 82800.00000 0 8596458.986 -6843866.000 -22998228.940 10 0 59687 83700.00000 0 10416891.172 -4676863.796 -22786117.914 10 0 59687 84600.00000 0 12352376.577 -2685667.425 -22130416.714 10 0 59687 85500.00000 0 14347634.118 -912007.875 -21043838.665 10 0 59688 0.00000 0 16341709.158 613318.505 -19547506.147 10 0 59688 900.00000 0 18270412.692 1871509.071 -17670539.693 10 0 59688 1800.00000 0 20068913.942 2856298.963 -15449490.144 10 0 59688 2700.00000 0 21674380.958 3573971.073 -12927622.184 10 0 59688 3600.00000 0 23028555.187 4042830.573 -10154065.267 10 0 59688 4500.00000 0 24080152.330 4292168.473 -7182848.272 10 0 59688 5400.00000 0 24786987.842 4360759.517 -4071837.482 10 0 59688 6300.00000 0 25117737.300 4294959.713 -881599.499 10 0 59688 7200.00000 0 25053257.380 4146485.803 2325787.589 10 0 59688 8100.00000 0 24587412.093 3969972.466 5487950.563 10 0 59688 9000.00000 0 23727369.968 3820412.250 8543440.264 10 0 59688 9900.00000 0 22493360.516 3750587.897 11432929.013 10 0 59688 10800.00000 0 20917901.150 3808606.636 14100362.497 10 0 59688 11700.00000 0 19044528.031 4035641.242 16494043.719 10 0 59688 12600.00000 0 16926084.979 4463973.367 18567628.181 10 0 59688 13500.00000 0 14622642.716 5115421.582 20281011.817 10 0 59688 14400.00000 0 12199135.674 6000219.974 21601095.528 10 0 59688 15300.00000 0 9722814.816 7116394.063 22502412.798 10 0 59688 16200.00000 0 7260621.957 8449659.975 22967609.641 10 0 59688 17100.00000 0 4876593.649 9973851.068 22987768.950 10 0 59688 18000.00000 0 2629401.155 11651854.362 22562574.072 10 0 59688 18900.00000 0 570126.917 13437018.265 21700309.277 10 0 59688 19800.00000 0 -1259632.035 15274973.761 20417697.529 10 0 59688 20700.00000 0 -2829256.691 17105794.163 18739578.691 10 0 59688 21600.00000 0 -4120134.410 18866404.702 16698433.996 10 0 59688 22500.00000 0 -5126181.654 20493142.726 14333765.194 10 0 59688 23400.00000 0 -5853840.439 21924362.833 11691339.479 10 0 59688 24300.00000 0 -6321549.526 23102979.082 8822313.672 10 0 59688 25200.00000 0 -6558713.018 23978838.664 5782253.490 10 0 59688 26100.00000 0 -6604209.855 24510827.861 2630065.985 10 0 59688 27000.00000 0 -6504507.002 24668621.949 -573134.974 10 0 59688 27900.00000 0 -6311455.741 24434005.075 -3765208.774 10 0 59688 28800.00000 0 -6079864.027 23801703.824 -6884190.984 10 0 59688 29700.00000 0 -5864947.527 22779698.320 -9869495.846 10 0 59688 30600.00000 0 -5719767.360 21388996.459 -12663094.865 10 0 59688 31500.00000 0 -5692763.350 19662879.344 -15210648.179 10 0 59688 32400.00000 0 -5825487.894 17645648.226 -17462566.354 10 0 59688 33300.00000 0 -6150637.263 15390924.164 -19374981.511 10 0 59688 34200.00000 0 -6690464.778 12959570.593 -20910608.362 10 0 59688 35100.00000 0 -7455644.324 10417324.820 -22039477.957 10 0 59688 36000.00000 0 -8444633.735 7832236.807 -22739529.433 10 0 59688 36900.00000 0 -9643566.512 5272021.810 -22997047.711 10 0 59688 37800.00000 0 -11026678.021 2801437.133 -22806938.230 10 0 59688 38700.00000 0 -12557249.706 479792.260 -22172832.833 10 0 59688 39600.00000 0 -14189032.783 -1641303.776 -21107024.287 10 0 59688 40500.00000 0 -15868092.497 -3519863.919 -19630230.256 10 0 59688 41400.00000 0 -17534995.981 -5125033.576 -17771190.899 10 0 59688 42300.00000 0 -19127251.867 -6438127.301 -15566107.718 10 0 59688 43200.00000 0 -20581898.949 -7453149.095 -13057934.483 10 0 59688 44100.00000 0 -21838134.511 -8176775.579 -10295534.193 10 0 59688 45000.00000 0 -22839871.054 -8627804.104 -7332718.990 10 0 59688 45900.00000 0 -23538113.082 -8836090.763 -4227192.399 10 0 59688 46800.00000 0 -23893053.184 -8841024.941 -1039415.412 10 0 59688 47700.00000 0 -23875798.648 -8689606.803 2168580.346 10 0 59688 48600.00000 0 -23469655.688 -8434210.932 5334408.169 10 0 59688 49500.00000 0 -22670917.318 -8130132.515 8396545.863 10 0 59688 50400.00000 0 -21489122.145 -7833021.377 11295534.741 10 0 59688 51300.00000 0 -19946773.845 -7596313.553 13975134.235 10 0 59688 52200.00000 0 -18078533.842 -7468769.663 16383409.612 10 0 59688 53100.00000 0 -15929921.835 -7492224.329 18473731.910 10 0 59688 54000.00000 0 -13555579.107 -7699641.432 20205671.477 10 0 59688 54900.00000 0 -11017167.439 -8113556.766 21545768.887 10 0 59688 55800.00000 0 -8380991.227 -8744972.990 22468169.526 10 0 59688 56700.00000 0 -5715441.202 -9592752.749 22955111.022 10 0 59688 57600.00000 0 -3088365.044 -10643535.010 22997255.422 10 0 59688 58500.00000 0 -564472.776 -11872177.902 22593860.798 10 0 59688 59400.00000 0 1797117.099 -13242709.731 21752789.821 10 0 59688 60300.00000 0 3945090.749 -14709748.929 20490355.564 10 0 59688 61200.00000 0 5837821.426 -16220334.373 18831007.517 10 0 59688 62100.00000 0 7444844.775 -17716090.697 16806863.510 10 0 59688 63000.00000 0 8747867.317 -19135639.255 14457095.847 10 0 59688 63900.00000 0 9741267.328 -20417155.064 11827182.572 10 0 59688 64800.00000 0 10432068.282 -21500963.745 8968037.284 10 0 59688 65700.00000 0 10839386.622 -22332070.416 5935033.176 10 0 59688 66600.00000 0 10993377.355 -22862514.889 2786939.315 10 0 59688 67500.00000 0 10933721.938 -23053454.309 -415211.099 10 0 59688 68400.00000 0 10707722.060 -22876885.290 -3609299.110 10 0 59688 69300.00000 0 10368079.598 -22316932.346 -6733322.399 10 0 59688 70200.00000 0 9970456.416 -21370647.235 -9726598.427 10 0 59688 71100.00000 0 9570917.173 -20048284.161 -12530944.838 10 0 59688 72000.00000 0 9223363.479 -18373037.672 -15091813.779 10 0 59688 72900.00000 0 8977068.341 -16380252.612 -17359357.711 10 0 59688 73800.00000 0 8874415.840 -14116137.608 -19289405.539 10 0 59688 74700.00000 0 8948942.454 -11636034.633 -20844329.529 10 0 59688 75600.00000 0 9223763.859 -9002315.751 -21993785.720 10 0 59688 76500.00000 0 9710454.866 -6281993.950 -22715312.950 10 0 59688 77400.00000 0 10408431.022 -3544147.148 -22994778.362 10 0 59688 78300.00000 0 11304859.285 -857262.291 -22826660.270 10 0 59688 79200.00000 0 12375102.745 1713390.019 -22214162.392 10 0 59688 80100.00000 0 13583681.730 4108241.036 -21169156.734 10 0 59688 81000.00000 0 14885711.627 6275666.033 -19711955.796 10 0 59688 81900.00000 0 16228757.411 8173889.766 -17870918.111 10 0 59688 82800.00000 0 17555026.933 9772475.921 -15681894.583 10 0 59688 83700.00000 0 18803810.405 11053338.828 -13187526.295 10 0 59688 84600.00000 0 19914062.835 12011235.979 -10436407.614 10 0 59688 85500.00000 0 20827019.817 12653721.778 -7482131.392 10 0 59689 0.00000 0 21488735.503 13000566.050 -4382235.789 10 0 59689 900.00000 0 21852435.208 13082663.682 -1197072.476 10 0 59689 1800.00000 0 21880581.821 12940482.925 2011376.421 10 0 59689 2700.00000 0 21546569.607 12622120.519 5180714.070 10 0 59689 3600.00000 0 20835972.785 12181047.184 8249348.537 10 0 59689 4500.00000 0 19747296.795 11673640.717 11157693.280 10 0 59689 5400.00000 0 18292200.866 11156612.243 13849324.399 10 0 59689 6300.00000 0 16495183.005 10684435.249 16272072.092 10 0 59689 7200.00000 0 14392741.203 10306886.387 18379025.321 10 0 59689 8100.00000 0 12032046.397 10066801.681 20129430.950 10 0 59689 9000.00000 0 9469182.858 9998142.259 21489471.015 10 0 59689 9900.00000 0 6767029.383 10124450.256 22432904.280 10 0 59689 10800.00000 0 3992868.985 10457758.930 22941561.115 10 0 59689 11700.00000 0 1215825.525 10998001.954 23005683.454 10 0 59689 12600.00000 0 -1495767.455 11732946.003 22624104.397 10 0 59689 13500.00000 0 -4076958.219 12638649.132 21804264.842 10 0 59689 14400.00000 0 -6468622.938 13680425.816 20562067.291 10 0 59689 15300.00000 0 -8619666.778 14814278.625 18921569.672 10 0 59689 16200.00000 0 -10488890.465 15988737.341 16914524.750 10 0 59689 17100.00000 0 -12046446.448 17147029.470 14579773.276 10 0 59689 18000.00000 0 -13274825.401 18229492.241 11962501.700 10 0 59689 18900.00000 0 -14169333.051 19176125.980 9113377.668 10 0 59689 19800.00000 0 -14738038.198 19929182.519 6087578.938 10 0 59689 20700.00000 0 -15001194.488 20435680.450 2943733.541 10 0 59689 21600.00000 0 -14990160.416 20649741.618 -257209.094 10 0 59689 22500.00000 0 -14745862.949 20534650.264 -3453154.792 10 0 59689 23400.00000 0 -14316869.311 20064547.428 -6582066.436 10 0 59689 24300.00000 0 -13757148.110 19225688.151 -9583167.707 10 0 59689 25200.00000 0 -13123614.232 18017207.101 -12398125.233 10 0 59689 26100.00000 0 -12473561.232 16451358.702 -14972185.797 10 0 59689 27000.00000 0 -11862089.908 14553219.874 -17255246.110 10 0 59689 27900.00000 0 -11339642.112 12359865.927 -19202833.906 10 0 59689 28800.00000 0 -10949744.550 9919052.457 -20776980.712 10 0 59689 29700.00000 0 -10727058.603 7287456.815 -21946968.914 10 0 59689 30600.00000 0 -10695819.352 4528551.266 -22689938.062 10 0 59689 31500.00000 0 -10868730.612 1710195.672 -22991338.162 10 0 59689 32400.00000 0 -11246363.573 -1097950.688 -22845220.671 10 0 59689 33300.00000 0 -11817085.302 -3827090.810 -22254361.035 10 0 59689 34200.00000 0 -12557520.931 -6411914.443 -21230209.945 10 0 59689 35100.00000 0 -13433530.665 -8793076.172 -19792673.750 10 0 59689 36000.00000 0 -14401660.810 -10919423.913 -17969727.972 10 0 59689 36900.00000 0 -15411007.674 -12749884.875 -15796871.151 10 0 59689 37800.00000 0 -16405415.524 -14254930.611 -13316429.609 10 0 59689 38700.00000 0 -17325915.310 -15417560.416 -10576726.774 10 0 59689 39600.00000 0 -18113300.435 -16233762.707 -7631133.719 10 0 59689 40500.00000 0 -18710729.878 -16712436.307 -4537020.094 10 0 59689 41400.00000 0 -19066247.723 -16874776.503 -1354626.719 10 0 59689 42300.00000 0 -19135111.771 -16753153.507 1854117.002 10 0 59689 43200.00000 0 -18881832.132 -16389532.609 5026806.796 10 0 59689 44100.00000 0 -18281833.232 -15833504.629 8101783.676 10 0 59689 45000.00000 0 -17322668.927 -15140011.637 11019335.886 10 0 59689 45900.00000 0 -16004739.554 -14366865.485 13722858.774 10 0 59689 46800.00000 0 -14341480.983 -13572164.984 16159949.917 10 0 59689 47700.00000 0 -12359018.062 -12811721.310 18283418.453 10 0 59689 48600.00000 0 -10095297.318 -12136600.214 20052189.773 10 0 59689 49500.00000 0 -7598735.268 -11590884.147 21432089.090 10 0 59689 50400.00000 0 -4926438.736 -11209747.624 22396489.942 10 0 59689 51300.00000 0 -2142070.832 -11017925.662 22926816.499 10 0 59689 52200.00000 0 686549.506 -11028638.431 23012891.316 10 0 59689 53100.00000 0 3490015.842 -11243016.179 22653122.937 10 0 59689 54000.00000 0 6199965.428 -11650047.675 21854530.614 10 0 59689 54900.00000 0 8751665.868 -12227053.868 20632606.117 10 0 59689 55800.00000 0 11086451.752 -12940666.770 19011015.378 10 0 59689 56700.00000 0 13153912.004 -13748272.818 17021145.358 10 0 59689 57600.00000 0 14913738.768 -14599860.805 14701504.198 10 0 59689 58500.00000 0 16337162.322 -15440197.628 12096985.320 10 0 59689 59400.00000 0 17407913.380 -16211241.388 9258008.614 10 0 59689 60300.00000 0 18122673.435 -16854691.261 6239554.194 10 0 59689 61200.00000 0 18490994.727 -17314567.457 3100106.491 10 0 59689 62100.00000 0 18534693.400 -17539712.968 -99471.714 10 0 59689 63000.00000 0 18286741.283 -17486111.599 -3297114.125 10 0 59689 63900.00000 0 17789702.700 -17118924.041 -6430752.043 10 0 59689 64800.00000 0 17093781.899 -16414155.184 -9439518.611 10 0 59689 65700.00000 0 16254563.182 -15359881.030 -12264932.628 10 0 59689 66600.00000 0 15330538.928 -13956981.835 -14852038.575 10 0 59689 67500.00000 0 14380529.823 -12219348.714 -17150480.292 10 0 59689 68400.00000 0 13461106.309 -10173552.993 -19115486.984 10 0 59689 69300.00000 0 12624120.409 -7857990.175 -20708751.809 10 0 59689 70200.00000 0 11914452.475 -5321532.514 -21899185.522 10 0 59689 71100.00000 0 11368068.476 -2621744.855 -22663530.029 10 0 59689 72000.00000 0 11010470.369 177263.066 -22986819.429 10 0 59689 72900.00000 0 10855605.508 3007259.296 -22862679.113 10 0 59689 73800.00000 0 10905281.672 5798487.116 -22293456.626 10 0 59689 74700.00000 0 11149112.869 8482329.350 -21290181.265 10 0 59689 75600.00000 0 11564998.583 10993928.787 -19872352.755 10 0 59689 76500.00000 0 12120116.355 13274655.561 -18067562.713 10 0 59689 77400.00000 0 12772385.767 15274318.490 -15910956.034 10 0 59689 78300.00000 0 13472341.622 16953028.193 -13444542.597 10 0 59689 79200.00000 0 14165336.598 18282634.346 -10716372.817 10 0 59689 80100.00000 0 14793979.402 19247677.405 -7779593.558 10 0 59689 81000.00000 0 15300704.316 19845815.802 -4691403.470 10 0 59689 81900.00000 0 15630362.374 20087711.914 -1511928.947 10 0 59689 82800.00000 0 15732723.475 19996383.136 1696956.261 10 0 59689 83700.00000 0 15564782.709 19606047.187 4872843.708 10 0 59689 84600.00000 0 15092772.640 18960512.209 7954010.594 10 0 59689 85500.00000 0 14293796.136 18111181.359 10880623.074 99